Location: ??????????
(54.8537°N, 38.8755°E)
Time: 05:57:06
(UTC+00:00)

Tiros 1 despin weight - Pass Details

Date: 16 September 2024
Orbit: 573 x 615 km, 48.2° (Epoch: 04 October)

Event Time Altitude Azimuth Distance (km) Brightness Sun altitude
Rises 03:59:19 0° 264° (W) 2,889 ? 7.8°
Reaches altitude 10° 04:01:48 10° 255° (WSW) 1,984 ? 8.1°
Maximum altitude 04:05:51 32° 192° (SSW) 1,067 ? 8.7°
Drops below altitude 10° 04:09:53 10° 130° (SE) 1,976 ? 9.3°
Sets 04:12:22 0° 120° (ESE) 2,876 ? 9.6°
